5YDDT HKMO-HBBA

Flight info

Callsign 5YDDT
Flight time 1h 56m
Altitude 43000
Route NERAG1A GADLA UL434 KV UB531 MV UM306 GETAB DCT RG
Aircraft C700/M-SBDGHM1RWXY/LB2

Departure

Time 2026-05-06 17:05
Airport Moi International Airport (HKMO)

Arrival

Time 2026-05-06 19:02
Airport Bujumbura Melchior Ndadaye International Airport (HBBA)
Time Latitude Longitude Altitude Speed Heading
2026-05-06 16:49 -4.03208 39.60194 197 ft 0 kts 121°
2026-05-06 16:54 -4.03206 39.60191 197 ft 2 kts 121°
2026-05-06 16:54 -4.03198 39.60178 200 ft 2 kts 121°
2026-05-06 16:54 -4.03190 39.60165 202 ft 2 kts 121°
2026-05-06 16:55 -4.03182 39.60151 200 ft 2 kts 121°
2026-05-06 16:55 -4.03175 39.60138 202 ft 2 kts 121°
2026-05-06 16:55 -4.03167 39.60125 200 ft 2 kts 99°
2026-05-06 16:55 -4.03167 39.60119 199 ft 0 kts 84°
2026-05-06 16:59 -4.03164 39.60123 200 ft 3 kts 64°
2026-05-06 16:59 -4.03128 39.60144 200 ft 9 kts 16°
2026-05-06 16:59 -4.03080 39.60140 199 ft 8 kts 329°
2026-05-06 17:00 -4.03041 39.60086 205 ft 12 kts 297°
2026-05-06 17:00 -4.02996 39.60007 199 ft 8 kts 299°
2026-05-06 17:00 -4.02972 39.59964 197 ft 6 kts 300°
2026-05-06 17:00 -4.02924 39.59944 197 ft 10 kts 15°
2026-05-06 17:01 -4.02846 39.59978 201 ft 14 kts 31°
2026-05-06 17:01 -4.02746 39.60040 208 ft 19 kts 27°
2026-05-06 17:01 -4.02613 39.60112 201 ft 24 kts 30°
2026-05-06 17:01 -4.02458 39.60203 199 ft 28 kts 27°
2026-05-06 17:02 -4.02275 39.60302 200 ft 31 kts 29°
2026-05-06 17:02 -4.02082 39.60409 205 ft 32 kts 28°
2026-05-06 17:02 -4.01883 39.60522 202 ft 33 kts 27°
2026-05-06 17:02 -4.01694 39.60625 206 ft 30 kts 30°
2026-05-06 17:03 -4.01569 39.60696 204 ft 19 kts 29°
2026-05-06 17:03 -4.01451 39.60730 204 ft 14 kts 355°
2026-05-06 17:03 -4.01390 39.60714 209 ft 0 kts 336°
2026-05-06 17:04 -4.01379 39.60708 213 ft 5 kts 328°
2026-05-06 17:04 -4.01344 39.60655 204 ft 13 kts 272°
2026-05-06 17:05 -4.01450 39.60559 210 ft 45 kts 206°
2026-05-06 17:05 -4.02019 39.60245 215 ft 140 kts 208°
2026-05-06 17:05 -4.02920 39.59634 1039 ft 157 kts 214°
2026-05-06 17:05 -4.03899 39.58947 2144 ft 185 kts 207°
2026-05-06 17:06 -4.05057 39.58248 3417 ft 202 kts 208°
2026-05-06 17:06 -4.06279 39.57494 4781 ft 213 kts 208°
2026-05-06 17:06 -4.07605 39.56692 5906 ft 245 kts 208°
2026-05-06 17:06 -4.09251 39.55629 6015 ft 321 kts 217°
2026-05-06 17:07 -4.10869 39.53957 6451 ft 323 kts 227°
2026-05-06 17:07 -4.12042 39.52136 6480 ft 305 kts 247°
2026-05-06 17:07 -4.12281 39.50092 6488 ft 292 kts 275°
2026-05-06 17:07 -4.11580 39.48241 6490 ft 280 kts 299°
2026-05-06 17:08 -4.10492 39.46672 6500 ft 269 kts 306°
2026-05-06 17:08 -4.09256 39.45309 6508 ft 259 kts 313°
2026-05-06 17:08 -4.07978 39.44079 6510 ft 251 kts 316°
2026-05-06 17:08 -4.06689 39.42940 6509 ft 245 kts 317°
2026-05-06 17:09 -4.05417 39.41833 6500 ft 239 kts 317°
2026-05-06 17:09 -4.04168 39.40753 6487 ft 234 kts 317°
2026-05-06 17:09 -4.02945 39.39698 6480 ft 230 kts 317°
2026-05-06 17:09 -4.01738 39.38659 6473 ft 226 kts 317°
2026-05-06 17:10 -4.00569 39.37652 6471 ft 223 kts 317°
2026-05-06 17:10 -3.99397 39.36644 6467 ft 220 kts 317°
2026-05-06 17:10 -3.98243 39.35651 6466 ft 217 kts 317°
2026-05-06 17:10 -3.97102 39.34668 6455 ft 215 kts 317°
2026-05-06 17:11 -3.95971 39.33690 6449 ft 213 kts 317°
2026-05-06 17:11 -3.94896 39.32681 6445 ft 211 kts 309°
2026-05-06 17:11 -3.94088 39.31479 6434 ft 206 kts 291°
2026-05-06 17:11 -3.93661 39.30142 6560 ft 194 kts 281°
2026-05-06 17:12 -3.93302 39.28775 6794 ft 221 kts 283°
2026-05-06 17:12 -3.92822 39.27158 7100 ft 260 kts 284°
2026-05-06 17:12 -3.92264 39.25329 7622 ft 288 kts 285°
2026-05-06 17:12 -3.91671 39.23357 8143 ft 312 kts 285°
2026-05-06 17:13 -3.91024 39.21190 8689 ft 337 kts 286°
2026-05-06 17:13 -3.90332 39.18883 9234 ft 359 kts 286°
2026-05-06 17:13 -3.89587 39.16411 9795 ft 379 kts 287°
2026-05-06 17:13 -3.88825 39.13867 10706 ft 380 kts 287°
2026-05-06 17:14 -3.88067 39.11345 11910 ft 374 kts 288°
2026-05-06 17:14 -3.87324 39.08874 13145 ft 367 kts 288°
2026-05-06 17:14 -3.86599 39.06453 14326 ft 358 kts 288°
2026-05-06 17:14 -3.85890 39.04091 15480 ft 349 kts 289°
2026-05-06 17:15 -3.85199 39.01795 16660 ft 339 kts 289°
2026-05-06 17:15 -3.84530 38.99569 17887 ft 328 kts 288°
2026-05-06 17:15 -3.83881 38.97406 18880 ft 323 kts 288°
2026-05-06 17:15 -3.83221 38.95217 19037 ft 346 kts 288°
2026-05-06 17:16 -3.82495 38.92812 19036 ft 373 kts 288°
2026-05-06 17:16 -3.81734 38.90273 19323 ft 386 kts 288°
2026-05-06 17:16 -3.80970 38.87722 19699 ft 396 kts 288°
2026-05-06 17:16 -3.80148 38.84984 20086 ft 406 kts 288°
2026-05-06 17:17 -3.79314 38.82214 20566 ft 428 kts 288°
2026-05-06 17:17 -3.78428 38.79276 21060 ft 452 kts 288°
2026-05-06 17:17 -3.77518 38.76244 22163 ft 456 kts 288°
2026-05-06 17:17 -3.76604 38.73197 23442 ft 457 kts 287°
2026-05-06 17:18 -3.75687 38.70156 24540 ft 456 kts 287°
2026-05-06 17:18 -3.74786 38.67156 25646 ft 454 kts 287°
2026-05-06 17:18 -3.73866 38.64100 26821 ft 450 kts 287°
2026-05-06 17:18 -3.72983 38.61103 27926 ft 449 kts 285°
2026-05-06 17:19 -3.72374 38.58086 28937 ft 448 kts 281°
2026-05-06 17:19 -3.71778 38.55017 29979 ft 447 kts 282°
2026-05-06 17:19 -3.71154 38.51990 30869 ft 445 kts 282°
2026-05-06 17:19 -3.70533 38.48939 31649 ft 446 kts 282°
2026-05-06 17:20 -3.69929 38.45875 32227 ft 452 kts 282°
2026-05-06 17:20 -3.69525 38.43821 32629 ft 455 kts 282°
2026-05-06 17:20 -3.68685 38.39638 33462 ft 459 kts 283°
2026-05-06 17:20 -3.68263 38.37551 33887 ft 461 kts 283°
2026-05-06 17:21 -3.67420 38.33332 34641 ft 464 kts 282°
2026-05-06 17:21 -3.67003 38.31229 35022 ft 465 kts 283°
2026-05-06 17:21 -3.66366 38.28041 35600 ft 467 kts 283°
2026-05-06 17:21 -3.65726 38.24860 36188 ft 467 kts 283°
2026-05-06 17:22 -3.65084 38.21658 36797 ft 467 kts 283°
2026-05-06 17:22 -3.64448 38.18473 37408 ft 467 kts 283°
2026-05-06 17:22 -3.63810 38.15286 38060 ft 466 kts 283°
2026-05-06 17:22 -3.63173 38.12107 38704 ft 465 kts 283°
2026-05-06 17:23 -3.62535 38.08926 39147 ft 466 kts 283°
2026-05-06 17:23 -3.61893 38.05723 39526 ft 469 kts 283°
2026-05-06 17:23 -3.61249 38.02510 39826 ft 474 kts 283°
2026-05-06 17:23 -3.60597 37.99260 40129 ft 478 kts 283°
2026-05-06 17:24 -3.59950 37.96032 40440 ft 482 kts 283°
2026-05-06 17:24 -3.59287 37.92722 40761 ft 485 kts 282°
2026-05-06 17:24 -3.58621 37.89403 41087 ft 488 kts 282°
2026-05-06 17:24 -3.57957 37.86095 41493 ft 484 kts 282°
2026-05-06 17:25 -3.57295 37.82792 41992 ft 478 kts 282°
2026-05-06 17:25 -3.56645 37.79549 42491 ft 471 kts 282°
2026-05-06 17:25 -3.56004 37.76360 42990 ft 463 kts 282°
2026-05-06 17:26 -3.54725 37.69996 43067 ft 469 kts 282°
2026-05-06 17:26 -3.53429 37.63543 43007 ft 471 kts 282°
2026-05-06 17:26 -3.52791 37.60366 43005 ft 460 kts 282°
2026-05-06 17:27 -3.52176 37.57303 42997 ft 450 kts 282°
2026-05-06 17:27 -3.50966 37.51288 43000 ft 434 kts 282°
2026-05-06 17:28 -3.49781 37.45397 43009 ft 429 kts 282°
2026-05-06 17:28 -3.48614 37.39592 43014 ft 422 kts 282°
2026-05-06 17:29 -3.47433 37.33731 43021 ft 439 kts 282°
2026-05-06 17:29 -3.46823 37.30701 43026 ft 450 kts 282°
2026-05-06 17:29 -3.46207 37.27635 43035 ft 460 kts 282°
2026-05-06 17:30 -3.44933 37.21312 43036 ft 462 kts 282°
2026-05-06 17:30 -3.43669 37.15034 43046 ft 458 kts 282°
2026-05-06 17:31 -3.42355 37.08818 43044 ft 454 kts 284°
2026-05-06 17:31 -3.40920 37.02687 43051 ft 453 kts 283°
2026-05-06 17:32 -3.39482 36.96524 43058 ft 455 kts 284°
2026-05-06 17:32 -3.38034 36.90345 43069 ft 456 kts 284°
2026-05-06 17:33 -3.36587 36.84160 43079 ft 458 kts 284°
2026-05-06 17:33 -3.35131 36.77947 43088 ft 459 kts 284°
2026-05-06 17:34 -3.33679 36.71743 43092 ft 460 kts 284°
2026-05-06 17:34 -3.32213 36.65493 43098 ft 461 kts 284°
2026-05-06 17:35 -3.30749 36.59240 43100 ft 462 kts 284°
2026-05-06 17:35 -3.29274 36.52954 43098 ft 463 kts 283°
2026-05-06 17:36 -3.27065 36.43534 43087 ft 464 kts 283°
2026-05-06 17:36 -3.25596 36.37275 43077 ft 465 kts 283°
2026-05-06 17:37 -3.24118 36.30976 43077 ft 466 kts 283°
2026-05-06 17:37 -3.22633 36.24652 43077 ft 467 kts 283°
2026-05-06 17:38 -3.21152 36.18346 43070 ft 464 kts 283°
2026-05-06 17:38 -3.19673 36.12050 43072 ft 464 kts 283°
2026-05-06 17:39 -3.18195 36.05761 43078 ft 465 kts 283°
2026-05-06 17:39 -3.16715 35.99461 43082 ft 465 kts 283°
2026-05-06 17:40 -3.15235 35.93169 43088 ft 465 kts 283°
2026-05-06 17:40 -3.13755 35.86874 43093 ft 464 kts 283°
2026-05-06 17:41 -3.12284 35.80622 43099 ft 464 kts 283°
2026-05-06 17:41 -3.10808 35.74349 43104 ft 464 kts 283°
2026-05-06 17:42 -3.09328 35.68065 43106 ft 464 kts 283°
2026-05-06 17:42 -3.07850 35.61781 43105 ft 463 kts 283°
2026-05-06 17:43 -3.06372 35.55505 43101 ft 463 kts 283°
2026-05-06 17:43 -3.04892 35.49225 43088 ft 463 kts 283°
2026-05-06 17:44 -3.03412 35.42948 43082 ft 463 kts 283°
2026-05-06 17:44 -3.01933 35.36673 43075 ft 463 kts 283°
2026-05-06 17:45 -3.00456 35.30406 43068 ft 463 kts 283°
2026-05-06 17:45 -2.98978 35.24140 43063 ft 463 kts 283°
2026-05-06 17:46 -2.97511 35.17920 43056 ft 462 kts 283°
2026-05-06 17:46 -2.96034 35.11659 43052 ft 462 kts 283°
2026-05-06 17:47 -2.94620 35.05670 43048 ft 462 kts 283°
2026-05-06 17:47 -2.93145 34.99421 43051 ft 462 kts 283°
2026-05-06 17:48 -2.92060 34.93092 43040 ft 462 kts 276°
2026-05-06 17:48 -2.90657 34.86825 43035 ft 461 kts 287°
2026-05-06 17:49 -2.88663 34.80724 43037 ft 461 kts 287°
2026-05-06 17:49 -2.87245 34.74516 43036 ft 461 kts 280°
2026-05-06 17:50 -2.85804 34.68263 43031 ft 461 kts 285°
2026-05-06 17:50 -2.84293 34.62030 43034 ft 461 kts 282°
2026-05-06 17:51 -2.82843 34.55779 43027 ft 461 kts 284°
2026-05-06 17:51 -2.81349 34.49543 43021 ft 461 kts 283°
2026-05-06 17:52 -2.79880 34.43290 43018 ft 461 kts 283°
2026-05-06 17:52 -2.78397 34.37046 43009 ft 461 kts 283°
2026-05-06 17:53 -2.76931 34.30842 43007 ft 461 kts 283°
2026-05-06 17:53 -2.75443 34.24566 43004 ft 461 kts 283°
2026-05-06 17:54 -2.73964 34.18321 42998 ft 461 kts 283°
2026-05-06 17:54 -2.72492 34.12110 42995 ft 461 kts 283°
2026-05-06 17:55 -2.71053 34.06034 42985 ft 461 kts 283°
2026-05-06 17:55 -2.69571 33.99783 42981 ft 461 kts 283°
2026-05-06 17:56 -2.68092 33.93541 42979 ft 462 kts 283°
2026-05-06 17:56 -2.66611 33.87298 42978 ft 462 kts 283°
2026-05-06 17:57 -2.65128 33.81044 42971 ft 462 kts 283°
2026-05-06 17:57 -2.63644 33.74793 42967 ft 462 kts 283°
2026-05-06 17:58 -2.62163 33.68550 42947 ft 462 kts 283°
2026-05-06 17:58 -2.60687 33.62333 42941 ft 462 kts 283°
2026-05-06 17:59 -2.59202 33.56079 42941 ft 462 kts 283°
2026-05-06 17:59 -2.57718 33.49830 42938 ft 462 kts 283°
2026-05-06 18:00 -2.56233 33.43578 42935 ft 462 kts 283°
2026-05-06 18:00 -2.54747 33.37325 42935 ft 462 kts 283°
2026-05-06 18:01 -2.53260 33.31065 42930 ft 462 kts 283°
2026-05-06 18:01 -2.51773 33.24810 42925 ft 462 kts 283°
2026-05-06 18:02 -2.50285 33.18548 42926 ft 463 kts 283°
2026-05-06 18:02 -2.48795 33.12284 42917 ft 463 kts 283°
2026-05-06 18:03 -2.47306 33.06025 42920 ft 463 kts 283°
2026-05-06 18:03 -2.45816 32.99762 42924 ft 463 kts 283°
2026-05-06 18:04 -2.44903 32.93420 42908 ft 462 kts 269°
2026-05-06 18:04 -2.45887 32.87083 42910 ft 462 kts 255°
2026-05-06 18:05 -2.47446 32.80901 42921 ft 461 kts 256°
2026-05-06 18:05 -2.49011 32.74682 42924 ft 461 kts 255°
2026-05-06 18:06 -2.50581 32.68447 42929 ft 461 kts 256°
2026-05-06 18:06 -2.52146 32.62223 42929 ft 461 kts 255°
2026-05-06 18:07 -2.53449 32.57046 42925 ft 461 kts 256°
2026-05-06 18:07 -2.55268 32.49814 42931 ft 461 kts 255°
2026-05-06 18:08 -2.56833 32.43591 42933 ft 461 kts 256°
2026-05-06 18:08 -2.58142 32.38382 42935 ft 461 kts 256°
2026-05-06 18:09 -2.59963 32.31142 42935 ft 461 kts 256°
2026-05-06 18:09 -2.61261 32.25973 42936 ft 462 kts 256°
2026-05-06 18:10 -2.62830 32.19731 42938 ft 462 kts 256°
2026-05-06 18:10 -2.64383 32.13548 42937 ft 462 kts 256°
2026-05-06 18:11 -2.65960 32.07266 42936 ft 462 kts 256°
2026-05-06 18:11 -2.67512 32.01084 42930 ft 462 kts 256°
2026-05-06 18:12 -2.69080 31.94839 42940 ft 462 kts 256°
2026-05-06 18:12 -2.70638 31.88631 42940 ft 462 kts 256°
2026-05-06 18:13 -2.72210 31.82367 42944 ft 462 kts 256°
2026-05-06 18:13 -2.73774 31.76131 42959 ft 462 kts 256°
2026-05-06 18:14 -2.75339 31.69889 42967 ft 462 kts 256°
2026-05-06 18:14 -2.76905 31.63646 42972 ft 462 kts 256°
2026-05-06 18:15 -2.78459 31.57444 42976 ft 462 kts 256°
2026-05-06 18:15 -2.80023 31.51205 42990 ft 462 kts 256°
2026-05-06 18:16 -2.81587 31.44961 42997 ft 463 kts 256°
2026-05-06 18:16 -2.83151 31.38720 43004 ft 463 kts 256°
2026-05-06 18:17 -2.84716 31.32468 43010 ft 463 kts 256°
2026-05-06 18:17 -2.86279 31.26226 43015 ft 463 kts 256°
2026-05-06 18:18 -2.87842 31.19983 43021 ft 463 kts 256°
2026-05-06 18:18 -2.89407 31.13728 43033 ft 463 kts 256°
2026-05-06 18:19 -2.90963 31.07511 43040 ft 463 kts 256°
2026-05-06 18:19 -2.92525 31.01265 43045 ft 463 kts 256°
2026-05-06 18:20 -2.94093 30.94995 43049 ft 463 kts 256°
2026-05-06 18:20 -2.95657 30.88737 43048 ft 463 kts 256°
2026-05-06 18:21 -2.97220 30.82485 43048 ft 464 kts 256°
2026-05-06 18:21 -2.97794 30.79339 42815 ft 468 kts 264°
2026-05-06 18:21 -2.97850 30.76072 42545 ft 472 kts 272°
2026-05-06 18:22 -2.97669 30.72799 42286 ft 471 kts 272°
2026-05-06 18:22 -2.97501 30.69522 42029 ft 471 kts 272°
2026-05-06 18:22 -2.97353 30.66254 41774 ft 469 kts 272°
2026-05-06 18:22 -2.97196 30.63022 41331 ft 462 kts 272°
2026-05-06 18:23 -2.97033 30.59816 40705 ft 459 kts 272°
2026-05-06 18:23 -2.96871 30.56613 40095 ft 457 kts 272°
2026-05-06 18:23 -2.96718 30.53445 39512 ft 455 kts 272°
2026-05-06 18:23 -2.96565 30.50322 38856 ft 454 kts 272°
2026-05-06 18:24 -2.96408 30.47169 37985 ft 452 kts 272°
2026-05-06 18:24 -2.96252 30.44044 37097 ft 448 kts 272°
2026-05-06 18:24 -2.96098 30.40949 36238 ft 443 kts 272°
2026-05-06 18:24 -2.95949 30.37886 35412 ft 438 kts 272°
2026-05-06 18:25 -2.95797 30.34855 34616 ft 434 kts 272°
2026-05-06 18:25 -2.95649 30.31860 34070 ft 425 kts 272°
2026-05-06 18:25 -2.95357 30.25972 34048 ft 428 kts 272°
2026-05-06 18:26 -2.95211 30.23041 34047 ft 413 kts 272°
2026-05-06 18:26 -2.95071 30.20233 34042 ft 399 kts 272°
2026-05-06 18:26 -2.94938 30.17548 34036 ft 382 kts 272°
2026-05-06 18:26 -2.94808 30.14944 34037 ft 362 kts 272°
2026-05-06 18:27 -2.94686 30.12478 34040 ft 345 kts 272°
2026-05-06 18:27 -2.94568 30.10119 34037 ft 336 kts 272°
2026-05-06 18:27 -2.94331 30.05352 34044 ft 354 kts 272°
2026-05-06 18:28 -2.94091 30.00559 34037 ft 333 kts 272°
2026-05-06 18:28 -2.93978 29.98296 34040 ft 317 kts 272°
2026-05-06 18:28 -2.93871 29.96141 34037 ft 304 kts 272°
2026-05-06 18:29 -2.93767 29.94056 34036 ft 297 kts 272°
2026-05-06 18:29 -2.93665 29.91990 34040 ft 302 kts 272°
2026-05-06 18:29 -2.93556 29.89839 34043 ft 315 kts 272°
2026-05-06 18:29 -2.93445 29.87632 34050 ft 318 kts 272°
2026-05-06 18:30 -2.93226 29.83232 34050 ft 314 kts 272°
2026-05-06 18:30 -2.93010 29.78933 34049 ft 311 kts 272°
2026-05-06 18:31 -2.92792 29.74591 34049 ft 315 kts 272°
2026-05-06 18:31 -2.92582 29.70110 34067 ft 329 kts 272°
2026-05-06 18:32 -2.92338 29.65627 34061 ft 314 kts 272°
2026-05-06 18:32 -2.92128 29.61329 34048 ft 307 kts 272°
2026-05-06 18:33 -2.91908 29.56992 34044 ft 317 kts 272°
2026-05-06 18:33 -2.91798 29.54774 33884 ft 322 kts 272°
2026-05-06 18:33 -2.91684 29.52525 33639 ft 324 kts 272°
2026-05-06 18:34 -2.91325 29.50338 33379 ft 322 kts 292°
2026-05-06 18:34 -2.90041 29.48559 33148 ft 316 kts 322°
2026-05-06 18:34 -2.88070 29.47671 32919 ft 310 kts 352°
2026-05-06 18:34 -2.85956 29.47802 32687 ft 306 kts 19°
2026-05-06 18:35 -2.84142 29.48881 32468 ft 304 kts 46°
2026-05-06 18:35 -2.83032 29.50650 32255 ft 304 kts 72°
2026-05-06 18:35 -2.82794 29.52756 31880 ft 310 kts 90°
2026-05-06 18:35 -2.82909 29.54993 30988 ft 330 kts 94°
2026-05-06 18:36 -2.83094 29.57319 30129 ft 342 kts 93°
2026-05-06 18:36 -2.83222 29.59730 29133 ft 351 kts 92°
2026-05-06 18:36 -2.83318 29.62202 28168 ft 358 kts 92°
2026-05-06 18:36 -2.83440 29.64710 27233 ft 363 kts 93°
2026-05-06 18:37 -2.83793 29.67212 26307 ft 366 kts 108°
2026-05-06 18:37 -2.84535 29.68721 25708 ft 368 kts 124°
2026-05-06 18:37 -2.87160 29.70828 24543 ft 371 kts 156°
2026-05-06 18:37 -2.89700 29.71275 23684 ft 374 kts 181°
2026-05-06 18:38 -2.92222 29.70621 22674 ft 377 kts 205°
2026-05-06 18:38 -2.94263 29.68980 21679 ft 380 kts 229°
2026-05-06 18:38 -2.95471 29.66634 20721 ft 382 kts 254°
2026-05-06 18:38 -2.95623 29.63996 19788 ft 381 kts 278°
2026-05-06 18:39 -2.94858 29.61511 18914 ft 378 kts 292°
2026-05-06 18:39 -2.93811 29.59133 18010 ft 375 kts 295°
2026-05-06 18:39 -2.92791 29.56724 17017 ft 372 kts 292°
2026-05-06 18:40 -2.91408 29.51798 15134 ft 365 kts 281°
2026-05-06 18:40 -2.90613 29.49414 14210 ft 360 kts 300°
2026-05-06 18:40 -2.88940 29.47595 13225 ft 355 kts 326°
2026-05-06 18:40 -2.86687 29.46698 12228 ft 349 kts 352°
2026-05-06 18:41 -2.84305 29.46869 11260 ft 343 kts 18°
2026-05-06 18:41 -2.82273 29.48056 10321 ft 338 kts 44°
2026-05-06 18:41 -2.81021 29.49968 9397 ft 333 kts 72°
2026-05-06 18:41 -2.80911 29.52193 9254 ft 318 kts 102°
2026-05-06 18:42 -2.81629 29.54354 9267 ft 336 kts 111°
2026-05-06 18:42 -2.82440 29.56540 9273 ft 335 kts 109°
2026-05-06 18:42 -2.83106 29.58780 9280 ft 336 kts 104°
2026-05-06 18:42 -2.83456 29.61088 9271 ft 336 kts 94°
2026-05-06 18:43 -2.83491 29.63434 9278 ft 336 kts 90°
2026-05-06 18:43 -2.83474 29.65772 9280 ft 333 kts 92°
2026-05-06 18:43 -2.84053 29.67914 9258 ft 310 kts 120°
2026-05-06 18:43 -2.85503 29.69355 9258 ft 285 kts 148°
2026-05-06 18:44 -2.87280 29.69994 9258 ft 263 kts 171°
2026-05-06 18:44 -2.89016 29.69885 9252 ft 247 kts 193°
2026-05-06 18:44 -2.90520 29.69169 9250 ft 234 kts 215°
2026-05-06 18:44 -2.91623 29.68007 9251 ft 231 kts 235°
2026-05-06 18:45 -2.92250 29.66517 9253 ft 237 kts 256°
2026-05-06 18:45 -2.92319 29.64872 9329 ft 240 kts 273°
2026-05-06 18:45 -2.92216 29.63185 9338 ft 244 kts 272°
2026-05-06 18:45 -2.92164 29.62062 9330 ft 244 kts 272°
2026-05-06 18:46 -2.92051 29.59808 9331 ft 242 kts 272°
2026-05-06 18:46 -2.91967 29.58138 9333 ft 241 kts 272°
2026-05-06 18:46 -2.91883 29.56456 9334 ft 241 kts 272°
2026-05-06 18:46 -2.91798 29.54779 9330 ft 241 kts 272°
2026-05-06 18:47 -2.91713 29.53101 9325 ft 242 kts 272°
2026-05-06 18:47 -2.91625 29.51431 9333 ft 242 kts 272°
2026-05-06 18:47 -2.91538 29.49755 9329 ft 242 kts 272°
2026-05-06 18:47 -2.91454 29.48074 9327 ft 242 kts 272°
2026-05-06 18:48 -2.91367 29.46394 9324 ft 242 kts 272°
2026-05-06 18:48 -2.91282 29.44711 9332 ft 240 kts 272°
2026-05-06 18:48 -2.91197 29.43039 9325 ft 241 kts 272°
2026-05-06 18:48 -2.91111 29.41356 9331 ft 242 kts 272°
2026-05-06 18:49 -2.91024 29.39665 9317 ft 243 kts 272°
2026-05-06 18:49 -2.90940 29.38000 9308 ft 242 kts 272°
2026-05-06 18:49 -2.90854 29.36296 9325 ft 242 kts 272°
2026-05-06 18:49 -2.90767 29.34631 9319 ft 242 kts 272°
2026-05-06 18:50 -2.90680 29.32954 9326 ft 241 kts 272°
2026-05-06 18:50 -2.90596 29.31275 9325 ft 242 kts 272°
2026-05-06 18:50 -2.90511 29.29593 9319 ft 242 kts 272°
2026-05-06 18:50 -2.90424 29.27903 9321 ft 243 kts 272°
2026-05-06 18:51 -2.90337 29.26217 9321 ft 242 kts 272°
2026-05-06 18:51 -2.90558 29.24566 9302 ft 240 kts 244°
2026-05-06 18:51 -2.91639 29.23344 9305 ft 236 kts 209°
2026-05-06 18:51 -2.93192 29.22975 9298 ft 227 kts 174°
2026-05-06 18:52 -2.94493 29.23530 9296 ft 198 kts 136°
2026-05-06 18:52 -2.95152 29.24792 9078 ft 213 kts 101°
2026-05-06 18:52 -2.95234 29.26253 8562 ft 209 kts 101°
2026-05-06 18:52 -2.95975 29.27468 8010 ft 208 kts 140°
2026-05-06 18:53 -2.97298 29.27933 7476 ft 208 kts 178°
2026-05-06 18:53 -2.98647 29.27482 6951 ft 208 kts 215°
2026-05-06 18:53 -2.99676 29.26504 6708 ft 199 kts 212°
2026-05-06 18:53 -3.01031 29.26226 6694 ft 205 kts 171°
2026-05-06 18:54 -3.02286 29.26797 6727 ft 188 kts 150°
2026-05-06 18:54 -3.03492 29.27227 6720 ft 183 kts 169°
2026-05-06 18:54 -3.04738 29.27448 6716 ft 181 kts 169°
2026-05-06 18:54 -3.05945 29.27667 6712 ft 166 kts 169°
2026-05-06 18:55 -3.07054 29.27831 6701 ft 160 kts 171°
2026-05-06 18:55 -3.07772 29.27948 6693 ft 155 kts 169°
2026-05-06 18:55 -3.08793 29.28115 6689 ft 146 kts 171°
2026-05-06 18:55 -3.09793 29.28265 6699 ft 144 kts 169°
2026-05-06 18:56 -3.10780 29.28432 6653 ft 146 kts 171°
2026-05-06 18:56 -3.11783 29.28578 6478 ft 144 kts 170°
2026-05-06 18:56 -3.12764 29.28748 6283 ft 142 kts 171°
2026-05-06 18:56 -3.13744 29.28887 6088 ft 143 kts 171°
2026-05-06 18:57 -3.14716 29.29057 5889 ft 139 kts 170°
2026-05-06 18:57 -3.15644 29.29191 5702 ft 132 kts 172°
2026-05-06 18:57 -3.16541 29.29343 5525 ft 130 kts 169°
2026-05-06 18:57 -3.17432 29.29478 5304 ft 129 kts 172°
2026-05-06 18:58 -3.18321 29.29618 5136 ft 130 kts 169°
2026-05-06 18:58 -3.19218 29.29766 4961 ft 131 kts 172°
2026-05-06 18:58 -3.20128 29.29899 4784 ft 133 kts 170°
2026-05-06 18:58 -3.21037 29.30059 4595 ft 134 kts 171°
2026-05-06 18:59 -3.21963 29.30187 4404 ft 134 kts 170°
2026-05-06 18:59 -3.22867 29.30349 4216 ft 133 kts 170°
2026-05-06 18:59 -3.23788 29.30478 4031 ft 133 kts 172°
2026-05-06 18:59 -3.24699 29.30634 3842 ft 132 kts 169°
2026-05-06 19:00 -3.25601 29.30771 3664 ft 131 kts 172°
2026-05-06 19:00 -3.26499 29.30913 3489 ft 130 kts 169°
2026-05-06 19:00 -3.27387 29.31060 3330 ft 129 kts 172°
2026-05-06 19:00 -3.28277 29.31190 3155 ft 128 kts 169°
2026-05-06 19:01 -3.29142 29.31363 2997 ft 126 kts 172°
2026-05-06 19:01 -3.30009 29.31473 2821 ft 125 kts 171°
2026-05-06 19:01 -3.30857 29.31601 2628 ft 120 kts 173°
2026-05-06 19:01 -3.31637 29.31716 2574 ft 110 kts 170°
2026-05-06 19:02 -3.32288 29.31829 2575 ft 69 kts 171°
2026-05-06 19:02 -3.32663 29.31888 2573 ft 44 kts 171°
2026-05-06 19:02 -3.32894 29.31951 2567 ft 26 kts 139°
2026-05-06 19:02 -3.32960 29.31981 2568 ft 2 kts 249°
2026-05-06 19:03 -3.32959 29.31973 2568 ft 5 kts 278°
2026-05-06 19:03 -3.32883 29.31919 2569 ft 24 kts 347°
2026-05-06 19:03 -3.32660 29.31888 2573 ft 41 kts 353°
2026-05-06 19:03 -3.32361 29.31842 2575 ft 39 kts 351°
2026-05-06 19:04 -3.32210 29.31855 2574 ft 10 kts 85°
2026-05-06 19:04 -3.32209 29.31899 2576 ft 0 kts 81°
2026-05-06 19:07 -3.32209 29.31901 2576 ft 2 kts 81°
2026-05-06 19:07 -3.32201 29.31946 2576 ft 10 kts 78°
2026-05-06 19:07 -3.32121 29.31970 2574 ft 17 kts 352°
2026-05-06 19:08 -3.32005 29.31950 2577 ft 13 kts 350°
2026-05-06 19:08 -3.31917 29.31946 2577 ft 14 kts 12°
2026-05-06 19:08 -3.31911 29.31948 2577 ft 0 kts 26°
2026-05-06 19:08 -3.31910 29.31951 2577 ft 1 kts 64°
2026-05-06 19:09 -3.31912 29.31981 2577 ft 10 kts 85°
2026-05-06 19:09 -3.31904 29.32034 2577 ft 0 kts 79°